テナグラ彗星

C/2013 C2 ( Tenagra )

English version
Home page
Updated on May 20, 2017

---------------------------------------------------------------------

・ プロフィール

発見日 2013年2月14日
発見光度 19.0等
発見者 P. R. Holvorcem, M. Schwartz (Tenagra Observatory)

・ 写真集

・ 軌道要素

Epoch 2015 Sept. 15.0 TT = JDT 2457280.5
T 2015 Aug. 30.28906 TT                                 MPCW
q   9.1309962            (2000.0)            P               Q
n   0.01531288     Peri.  308.79068     -0.91035190     +0.24123987
a  16.0607128      Node   247.52486     -0.16366672     -0.95615033
e   0.4314701      Incl.   21.33910     -0.38009555     -0.16607188
P  64.36
From 388 observations 2013 Feb. 14-2017 May 4, mean residual 0".5.

・ 光度変化

        m1 = 3.5 + 5 logΔ + 10.0 log r

---------------------------------------------------------------------

軌道要素はM.P.E.C. 2017-J52に掲載されたものです。
光度グラフはComet for Windowsで作成したものです。

---------------------------------------------------------------------

Copyright(C) Seiichi Yoshida (comet@aerith.net). All rights reserved.